Tacoma Narrows, WA

12:13 AM PDT on September 22, 2017 (GMT -0700)
Tacoma Narrows

Weather History for KTIW - March, 2014

Change the Weather History Date:

Saturday, March 1, 2014

  Actual Average Record
Temperature  
Mean Temperature 42 °F -  
Max Temperature 45 °F 47 °F 59 °F (2005)
Min Temperature 39 °F 36 °F 32 °F (2002)
Degree Days  
Heating Degree Days 23    
Moisture  
Dew Point 31 °F    
Average Humidity 67    
Maximum Humidity 79    
Minimum Humidity 52    
Precipitation  
Precipitation 0.02 in - - ()
Sea Level Pressure  
Sea Level Pressure 29.64 in    
Wind  
Wind Speed 7 mph (NNE)    
Max Wind Speed 12 mph    
Max Gust Speed -    
Visibility 10 miles    
Events Rain    
Averages and records for this station are not official NWS values.
T = Trace of Precipitation, MM = Missing Value Source: NWS Daily Summary

Daily Weather History Graph

Daily Weather History Graph

Search for Another Location

Airport or City:

Trip Planner

Search our weather history database for the weather conditions in past years. The results will help you decide how hot, cold, wet, or windy it might be!

Date:

Astronomy

Mar. 01, 2014 Rise Set
Actual Time 6:50 AM PST 5:55 PM PST
Civil Twilight 6:19 AM PST 6:26 PM PST
Nautical Twilight 5:44 AM PST 7:01 PM PST
Astronomical Twilight 5:08 AM PST 7:37 PM PST
Moon 6:43 AM PST (3/1) 6:55 PM PST (3/1)
Length of Visible Light 12h 06m
Length of Day
11h 05m
New Moon, 0% of the Moon is Illuminated
Mar 1
New Moon
Mar 8
First Quarter
Mar 16
Full
Mar 23
Last Quarter
Mar 30
New

Hourly Weather History & Observations

Time (PST) Temp. Windchill Dew Point Humidity Pressure Visibility Wind Dir Wind Speed Gust Speed Precip Events Conditions
12:53 AM 45.0 °F 39.7 °F 28.0 °F 52% 29.54 in 10.0 mi North 10.4 mph - N/A   Overcast
1:53 AM 44.1 °F 38.1 °F 28.9 °F 55% 29.55 in 10.0 mi North 11.5 mph - N/A   Unknown
2:53 AM 43.0 °F 37.2 °F 28.0 °F 56% 29.56 in 10.0 mi North 10.4 mph - N/A   Unknown
3:53 AM 42.1 °F 37.1 °F 28.9 °F 60% 29.56 in 10.0 mi North 8.1 mph - N/A   Unknown
4:53 AM 43.0 °F 37.7 °F 28.9 °F 58% 29.58 in 10.0 mi North 9.2 mph - N/A   Unknown
5:53 AM 43.0 °F 37.7 °F 28.0 °F 56% 29.59 in 10.0 mi North 9.2 mph - N/A   Unknown
6:53 AM 43.0 °F 37.2 °F 28.0 °F 56% 29.60 in 10.0 mi North 10.4 mph - N/A   Overcast
7:53 AM 42.1 °F 37.1 °F 30.9 °F 65% 29.63 in 10.0 mi North 8.1 mph - N/A   Overcast
8:53 AM 43.0 °F 38.2 °F 30.0 °F 60% 29.65 in 10.0 mi North 8.1 mph - N/A   Overcast
9:53 AM 43.0 °F 39.5 °F 30.9 °F 62% 29.67 in 10.0 mi North 5.8 mph - N/A   Overcast
10:53 AM 41.0 °F 38.0 °F 32.0 °F 70% 29.68 in 10.0 mi NNE 4.6 mph - 0.00 in Rain Light Rain
11:53 AM 41.0 °F 38.0 °F 32.0 °F 70% 29.68 in 10.0 mi NE 4.6 mph - 0.01 in Rain Light Rain
12:53 PM 39.9 °F 37.8 °F 34.0 °F 79% 29.67 in 10.0 mi NE 3.5 mph - 0.01 in Rain Light Rain
1:53 PM 39.9 °F 36.7 °F 33.1 °F 77% 29.66 in 10.0 mi NE 4.6 mph - 0.00 in   Overcast
2:53 PM 39.9 °F 35.1 °F 30.9 °F 70% 29.67 in 10.0 mi NNE 6.9 mph - N/A   Overcast
3:53 PM 39.9 °F 35.8 °F 30.0 °F 68% 29.66 in 10.0 mi NNE 5.8 mph - N/A   Overcast
4:53 PM 41.0 °F - 30.9 °F 67% 29.65 in 10.0 mi Calm Calm - N/A   Overcast
5:53 PM 41.0 °F 39.0 °F 32.0 °F 70% 29.65 in 10.0 mi NNW 3.5 mph - N/A   Overcast
6:53 PM 41.0 °F - 33.1 °F 73% 29.67 in 10.0 mi Calm Calm - N/A   Overcast
7:53 PM 41.0 °F - 32.0 °F 70% 29.66 in 10.0 mi Calm Calm - N/A   Overcast
8:53 PM 42.1 °F - 34.0 °F 73% 29.67 in 10.0 mi Calm Calm - N/A   Overcast
9:53 PM 42.1 °F - 35.1 °F 76% 29.68 in 10.0 mi Calm Calm - N/A   Overcast
10:53 PM 43.0 °F - 36.0 °F 76% 29.69 in 10.0 mi Calm Calm - N/A   Overcast
11:53 PM 44.1 °F 38.6 °F 37.9 °F 79% 29.69 in 10.0 mi South 10.4 mph - N/A   Overcast